Weather History for Indianapolis, IN

Change the Weather History Date:

Saturday, October 26, 2013

  Actual Average Record
Temperature  
Mean Temperature 44 °F 52 °F  
Max Temperature 56 °F 62 °F 82 °F (1963)
Min Temperature 32 °F 42 °F 20 °F (1962)
Degree Days  
Heating Degree Days 21 13  
Month to date heating degree days 271 254  
Since 1 July heating degree days 305 329  
Cooling Degree Days 0 0  
Month to date cooling degree days 31 13  
Year to date cooling degree days 1160 1062  
Moisture  
Dew Point 30 °F    
Average Humidity 63    
Maximum Humidity 76    
Minimum Humidity 50    
Precipitation  
Precipitation 0.00 in 0.10 in 2.45 in (1991)
Month to date precipitation 3.19 2.61  
Year to date precipitation 35.98 35.06  
Snow  
Snow 0.00 in 0.00 in T in (2001)
Month to date snowfall T 0.3  
Since 1 July snowfall T 0.3  
Since 1 September snowfall T 0.3  
Snow Depth 0.00 in    
Sea Level Pressure  
Sea Level Pressure 30.06 in    
Wind  
Wind Speed 13 mph (WSW)    
Max Wind Speed 24 mph    
Max Gust Speed 31 mph    
Visibility 10 miles    
Events      
T = Trace of Precipitation, MM = Missing Value Source: NWS Daily Summary

Daily Weather History Graph

Daily Weather History Graph

Search for Another Location

Airport:

Trip Planner

Search our weather history database for the weather conditions in past years. The results will help you decide how hot, cold, wet, or windy it might be!

Date:

Astronomy

Oct. 26, 2013 Rise Set
Actual Time 8:07 AM EDT 6:50 PM EDT
Civil Twilight 7:39 AM EDT 7:17 PM EDT
Nautical Twilight 7:08 AM EDT 7:49 PM EDT
Astronomical Twilight 6:36 AM EDT 8:20 PM EDT
Moon 12:11 AM EDT (10/26) 2:22 PM EDT (10/26)
Length of Visible Light 11h 38m
Length of Day
10h 42m
Waning Gibbous, 53% of the Moon is Illuminated
Oct 26
Waning Gibbous
Oct 26
Last Quarter
Nov 3
New
Nov 10
First Quarter
Nov 17
Full

Hourly Weather History & Observations

Time (EDT) Temp. Windchill Dew Point Humidity Pressure Visibility Wind Dir Wind Speed Gust Speed Precip Events Conditions
12:54 AM 34.0 °F 26.6 °F 24.1 °F 67% 30.24 in 10.0 mi SSW 9.2 mph - N/A   Clear
1:54 AM 32.0 °F 24.8 °F 24.1 °F 73% 30.22 in 10.0 mi SSW 8.1 mph - N/A   Clear
2:54 AM 33.1 °F 25.5 °F 25.0 °F 72% 30.20 in 10.0 mi SSW 9.2 mph - N/A   Clear
3:54 AM 33.1 °F 25.5 °F 25.0 °F 72% 30.18 in 10.0 mi SSW 9.2 mph - N/A   Clear
4:54 AM 34.0 °F 24.6 °F 25.0 °F 70% 30.16 in 10.0 mi SSW 13.8 mph - N/A   Clear
6:54 AM 33.1 °F 23.9 °F 25.0 °F 72% 30.14 in 10.0 mi SSW 12.7 mph - N/A   Partly Cloudy
7:54 AM 36.0 °F 26.0 °F 26.1 °F 67% 30.10 in 10.0 mi SSW 17.3 mph - N/A   Mostly Cloudy
8:54 AM 39.0 °F 30.6 °F 26.1 °F 60% 30.08 in 10.0 mi SSW 15.0 mph - N/A   Mostly Cloudy
9:54 AM 41.0 °F 32.8 °F 27.0 °F 57% 30.06 in 10.0 mi SSW 16.1 mph - N/A   Mostly Cloudy
10:54 AM 43.0 °F 35.1 °F 27.0 °F 53% 30.03 in 10.0 mi SW 17.3 mph - N/A   Overcast
11:54 AM 44.1 °F 36.2 °F 30.0 °F 58% 30.01 in 10.0 mi SW 18.4 mph 28.8 mph N/A   Overcast
12:10 PM 44.6 °F 36.9 °F 30.2 °F 57% 30.00 in 10.0 mi SW 18.4 mph 24.2 mph N/A   Overcast
12:34 PM 44.6 °F 36.9 °F 32.0 °F 61% 29.99 in 10.0 mi SW 18.4 mph 25.3 mph N/A   Overcast
12:54 PM 45.0 °F 38.2 °F 32.0 °F 60% 30.00 in 10.0 mi SW 15.0 mph - N/A   Overcast
1:54 PM 50.0 °F - 34.0 °F 54% 29.95 in 10.0 mi SW 23.0 mph 28.8 mph N/A   Partly Cloudy
2:54 PM 53.1 °F - 35.1 °F 50% 29.95 in 10.0 mi WSW 19.6 mph 25.3 mph N/A   Mostly Cloudy
3:54 PM 55.9 °F - 37.0 °F 49% 29.93 in 10.0 mi WSW 17.3 mph 20.7 mph N/A   Overcast
4:54 PM 55.9 °F - 37.9 °F 51% 29.94 in 10.0 mi WSW 15.0 mph - N/A   Overcast
5:54 PM 55.9 °F - 37.0 °F 49% 29.96 in 10.0 mi WNW 12.7 mph 25.3 mph N/A   Overcast
6:54 PM 52.0 °F - 35.1 °F 53% 29.99 in 10.0 mi WNW 11.5 mph - N/A   Mostly Cloudy
7:54 PM 50.0 °F - 32.0 °F 50% 30.02 in 10.0 mi NW 13.8 mph - N/A   Mostly Cloudy
8:54 PM 46.0 °F 41.9 °F 30.9 °F 56% 30.04 in 10.0 mi NW 8.1 mph - N/A   Mostly Cloudy
9:54 PM 43.0 °F 39.5 °F 30.9 °F 62% 30.06 in 10.0 mi WNW 5.8 mph - N/A   Partly Cloudy
10:54 PM 41.0 °F 38.0 °F 30.0 °F 65% 30.07 in 10.0 mi WNW 4.6 mph - N/A   Partly Cloudy
11:54 PM 37.9 °F 32.1 °F 30.0 °F 73% 30.09 in 10.0 mi NW 8.1 mph - N/A   Partly Cloudy